QPF
0.00 0.00 0.00 0.00 0.00 0.01 0.01 0.00 0.00 0.00 0.00 0.00 0.00 0.01 0.01 0.01 0.01 0.02 0.01 0.01 0.01 0.01 0.02 0.11 0.06 0.04 0.03 0.02 0.02 0.03 0.04 0.03 0.03 0.02 0.01 0.01 0.01 0.01 0.01 0.02 0.03 0.04 0.03 0.02 0.01 0.01 0.01 0.02 0.02
0.00 0.00 0.00 0.00 0.00 0.01 0.01 0.00 0.00 0.00 0.00 0.00 0.00 0.00 0.01 0.01 0.01 0.01 0.01 0.01 0.01 0.01 0.05 0.14 0.08 0.05 0.04 0.02 0.01 0.02 0.02 0.04 0.03 0.03 0.01 0.01 0.01 0.01 0.01 0.01 0.02 0.04 0.07 0.05 0.02 0.02 0.02 0.02 0.02
0.00 0.00 0.00 0.00 0.00 0.01 0.00 0.00 0.00 0.00 0.00 0.00 0.00 0.00 0.01 0.02 0.01 0.02 0.01 0.01 0.03 0.02 0.07 0.14 0.10 0.06 0.05 0.04 0.03 0.03 0.03 0.03 0.04 0.03 0.02 0.01 0.01 0.01 0.01 0.01 0.02 0.03 0.05 0.06 0.04 0.04 0.03 0.03 0.02
0.00 0.00 0.00 0.00 0.00 0.00 0.00 0.00 0.00 0.00 0.00 0.00 0.00 0.01 0.02 0.02 0.01 0.01 0.01 0.01 0.04 0.06 0.07 0.09 0.07 0.06 0.05 0.07 0.06 0.05 0.04 0.03 0.03 0.02 0.03 0.03 0.02 0.01 0.01 0.02 0.02 0.03 0.03 0.04 0.04 0.04 0.05 0.05 0.04
0.00 0.00 0.00 0.00 0.00 0.00 0.00 0.00 0.00 0.00 0.00 0.00 0.01 0.01 0.02 0.02 0.02 0.01 0.01 0.01 0.03 0.06 0.06 0.09 0.09 0.10 0.11 0.11 0.08 0.06 0.03 0.03 0.03 0.02 0.03 0.04 0.03 0.02 0.02 0.02 0.03 0.03 0.04 0.05 0.06 0.06 0.06 0.06 0.05
0.00 0.00 0.00 0.00 0.00 0.00 0.00 0.00 0.00 0.00 0.00 0.00 0.01 0.02 0.05 0.03 0.02 0.01 0.01 0.01 0.02 0.04 0.06 0.10 0.11 0.11 0.10 0.08 0.06 0.05 0.03 0.02 0.02 0.02 0.02 0.03 0.03 0.05 0.06 0.04 0.04 0.04 0.06 0.07 0.08 0.09 0.07 0.06 0.07
0.00 0.00 0.00 0.00 0.00 0.00 0.00 0.00 0.00 0.00 0.00 0.00 0.01 0.01 0.03 0.04 0.03 0.01 0.01 0.01 0.01 0.03 0.06 0.07 0.06 0.06 0.07 0.06 0.05 0.05 0.06 0.04 0.03 0.02 0.02 0.03 0.05 0.06 0.07 0.07 0.07 0.06 0.06 0.08 0.09 0.10 0.09 0.07 0.06
0.00 0.00 0.00 0.00 0.00 0.00 0.00 0.00 0.00 0.00 0.01 0.00 0.00 0.02 0.04 0.04 0.02 0.01 0.01 0.01 0.01 0.02 0.04 0.05 0.06 0.06 0.07 0.06 0.06 0.06 0.06 0.06 0.05 0.04 0.05 0.06 0.08 0.07 0.07 0.06 0.05 0.06 0.07 0.08 0.10 0.12 0.10 0.07 0.05
0.00 0.00 0.00 0.00 0.01 0.01 0.00 0.00 0.00 0.00 0.00 0.01 0.00 0.01 0.03 0.02 0.01 0.01 0.00 0.01 0.01 0.01 0.03 0.03 0.05 0.05 0.05 0.04 0.07 0.09 0.08 0.08 0.06 0.07 0.09 0.09 0.09 0.08 0.08 0.09 0.08 0.07 0.08 0.09 0.10 0.10 0.11 0.09 0.06
0.00 0.00 0.00 0.00 0.01 0.03 0.01 0.00 0.00 0.00 0.01 0.01 0.00 0.01 0.01 0.01 0.01 0.01 0.01 0.00 0.01 0.01 0.03 0.02 0.03 0.03 0.04 0.04 0.04 0.06 0.05 0.06 0.08 0.10 0.10 0.10 0.10 0.10 0.08 0.08 0.08 0.08 0.09 0.10 0.11 0.12 0.11 0.11 0.11
0.00 0.00 0.00 0.00 0.01 0.02 0.01 0.00 0.00 0.00 0.01 0.01 0.00 0.01 0.01 0.01 0.01 0.01 0.01 0.01 0.01 0.01 0.02 0.03 0.02 0.03 0.03 0.03 0.03 0.02 0.02 0.02 0.03 0.05 0.08 0.11 0.13 0.14 0.13 0.10 0.08 0.08 0.09 0.11 0.12 0.14 0.13 0.10 0.10
0.00 0.00 0.00 0.00 0.00 0.00 0.00 0.00 0.00 0.01 0.01 0.00 0.00 0.00 0.01 0.02 0.02 0.02 0.01 0.01 0.02 0.02 0.02 0.03 0.02 0.02 0.02 0.02 0.02 0.02 0.02 0.02 0.02 0.04 0.06 0.08 0.08 0.08 0.08 0.06 0.04 0.04 0.05 0.07 0.07 0.08 0.12 0.09 0.08
0.00 0.00 0.00 0.00 0.00 0.00 0.01 0.01 0.01 0.01 0.01 0.01 0.00 0.01 0.02 0.03 0.02 0.02 0.02 0.02 0.02 0.02 0.02 0.03 0.05 0.02 0.01 0.01 0.02 0.01 0.01 0.02 0.03 0.04 0.05 0.05 0.05 0.04 0.03 0.03 0.02 0.03 0.04 0.04 0.05 0.06 0.08 0.07 0.05
0.00 0.00 0.00 0.00 0.00 0.00 0.02 0.03 0.02 0.02 0.01 0.01 0.01 0.02 0.03 0.02 0.02 0.02 0.02 0.03 0.02 0.02 0.02 0.02 0.04 0.02 0.01 0.01 0.02 0.02 0.01 0.02 0.03 0.04 0.05 0.05 0.05 0.04 0.02 0.02 0.02 0.03 0.03 0.03 0.03 0.04 0.06 0.06 0.05
0.00 0.00 0.00 0.00 0.00 0.00 0.02 0.04 0.03 0.03 0.02 0.02 0.03 0.03 0.05 0.05 0.04 0.04 0.04 0.04 0.03 0.02 0.02 0.02 0.03 0.04 0.02 0.02 0.02 0.03 0.02 0.02 0.04 0.04 0.04 0.05 0.06 0.06 0.03 0.03 0.02 0.03 0.02 0.03 0.03 0.04 0.05 0.06 0.05
0.00 0.00 0.01 0.01 0.00 0.01 0.01 0.04 0.04 0.05 0.04 0.04 0.04 0.06 0.06 0.09 0.09 0.07 0.05 0.05 0.04 0.04 0.04 0.04 0.03 0.03 0.03 0.04 0.04 0.04 0.04 0.04 0.04 0.04 0.04 0.05 0.05 0.05 0.05 0.03 0.02 0.02 0.02 0.03 0.03 0.05 0.05 0.06 0.05
0.00 0.01 0.01 0.01 0.01 0.02 0.02 0.03 0.06 0.07 0.07 0.04 0.03 0.04 0.05 0.06 0.08 0.07 0.05 0.05 0.05 0.04 0.04 0.03 0.04 0.04 0.04 0.05 0.05 0.03 0.04 0.04 0.04 0.04 0.04 0.06 0.05 0.03 0.03 0.03 0.02 0.03 0.03 0.03 0.04 0.05 0.06 0.07 0.06
0.01 0.01 0.00 0.01 0.01 0.01 0.02 0.05 0.10 0.11 0.11 0.07 0.03 0.02 0.03 0.03 0.05 0.06 0.06 0.06 0.06 0.06 0.06 0.04 0.04 0.05 0.05 0.06 0.04 0.03 0.03 0.03 0.02 0.03 0.04 0.05 0.04 0.04 0.03 0.03 0.03 0.03 0.04 0.03 0.04 0.05 0.04 0.05 0.06
0.00 0.01 0.00 0.00 0.01 0.01 0.02 0.08 0.16 0.18 0.16 0.09 0.04 0.02 0.03 0.03 0.05 0.05 0.05 0.08 0.06 0.04 0.04 0.05 0.05 0.05 0.04 0.04 0.05 0.05 0.04 0.03 0.02 0.02 0.03 0.04 0.04 0.04 0.04 0.03 0.03 0.03 0.03 0.03 0.02 0.03 0.04 0.03 0.03
0.00 0.00 0.00 0.01 0.02 0.04 0.03 0.06 0.17 0.22 0.14 0.07 0.04 0.03 0.03 0.04 0.05 0.05 0.05 0.06 0.06 0.05 0.04 0.05 0.06 0.06 0.04 0.04 0.04 0.06 0.07 0.04 0.03 0.03 0.03 0.03 0.03 0.04 0.03 0.04 0.03 0.03 0.04 0.03 0.03 0.03 0.03 0.03 0.03
0.01 0.00 0.00 0.01 0.02 0.03 0.04 0.05 0.11 0.14 0.12 0.06 0.03 0.02 0.02 0.03 0.04 0.05 0.06 0.06 0.06 0.05 0.06 0.06 0.06 0.05 0.04 0.04 0.03 0.05 0.08 0.07 0.04 0.03 0.03 0.03 0.04 0.03 0.03 0.03 0.03 0.03 0.04 0.04 0.03 0.03 0.03 0.03 0.03
0.01 0.00 0.00 0.01 0.01 0.01 0.02 0.02 0.03 0.08 0.09 0.03 0.01 0.01 0.01 0.02 0.03 0.04 0.05 0.06 0.06 0.03 0.03 0.04 0.04 0.04 0.03 0.03 0.04 0.06 0.07 0.07 0.05 0.04 0.03 0.04 0.04 0.02 0.02 0.02 0.03 0.03 0.04 0.04 0.04 0.04 0.03 0.04 0.03
0.01 0.00 0.00 0.00 0.01 0.01 0.01 0.01 0.01 0.03 0.04 0.02 0.01 0.01 0.01 0.02 0.03 0.03 0.04 0.04 0.02 0.01 0.02 0.03 0.03 0.03 0.02 0.02 0.04 0.05 0.05 0.05 0.04 0.02 0.03 0.05 0.03 0.02 0.02 0.02 0.03 0.03 0.03 0.03 0.04 0.04 0.04 0.03 0.03
0.01 0.01 0.01 0.01 0.00 0.01 0.00 0.01 0.03 0.02 0.02 0.01 0.01 0.00 0.01 0.03 0.03 0.03 0.02 0.01 0.01 0.01 0.02 0.03 0.03 0.03 0.02 0.02 0.02 0.02 0.04 0.03 0.02 0.03 0.04 0.04 0.02 0.02 0.01 0.01 0.02 0.03 0.03 0.03 0.05 0.05 0.06 0.05 0.04
0.01 0.01 0.01 0.01 0.01 0.01 0.01 0.03 0.05 0.04 0.02 0.02 0.02 0.01 0.01 0.02 0.03 0.03 0.01 0.01 0.01 0.02 0.02 0.03 0.02 0.02 0.03 0.03 0.03 0.03 0.04 0.03 0.03 0.03 0.03 0.03 0.02 0.02 0.02 0.01 0.02 0.02 0.03 0.03 0.05 0.06 0.07 0.07 0.07
0.00 0.00 0.01 0.01 0.01 0.01 0.03 0.04 0.03 0.03 0.05 0.03 0.02 0.01 0.01 0.01 0.01 0.02 0.02 0.02 0.02 0.03 0.03 0.04 0.03 0.03 0.05 0.07 0.07 0.06 0.05 0.04 0.04 0.03 0.03 0.03 0.02 0.01 0.01 0.01 0.02 0.02 0.02 0.03 0.05 0.06 0.07 0.06 0.06
0.00 0.00 0.00 0.01 0.01 0.01 0.02 0.02 0.01 0.02 0.02 0.02 0.02 0.01 0.01 0.01 0.01 0.02 0.02 0.02 0.02 0.04 0.06 0.07 0.08 0.10 0.11 0.10 0.08 0.06 0.05 0.05 0.05 0.03 0.02 0.02 0.02 0.01 0.01 0.01 0.01 0.02 0.02 0.03 0.04 0.04 0.04 0.04 0.05
0.00 0.00 0.00 0.01 0.01 0.01 0.01 0.01 0.01 0.01 0.02 0.02 0.01 0.01 0.01 0.01 0.01 0.01 0.02 0.03 0.03 0.06 0.09 0.11 0.12 0.12 0.10 0.07 0.06 0.04 0.04 0.04 0.04 0.02 0.02 0.02 0.02 0.02 0.02 0.02 0.02 0.03 0.03 0.03 0.03 0.03 0.03 0.03 0.04
0.00 0.01 0.00 0.00 0.00 0.01 0.01 0.02 0.02 0.03 0.03 0.03 0.02 0.02 0.01 0.01 0.01 0.01 0.01 0.02 0.03 0.05 0.06 0.04 0.04 0.04 0.04 0.03 0.04 0.03 0.02 0.03 0.02 0.02 0.02 0.02 0.02 0.02 0.02 0.02 0.02 0.02 0.02 0.02 0.02 0.02 0.02 0.03 0.03
0.00 0.00 0.00 0.01 0.01 0.01 0.01 0.03 0.03 0.03 0.02 0.02 0.02 0.02 0.01 0.01 0.01 0.01 0.01 0.02 0.02 0.03 0.03 0.02 0.01 0.02 0.01 0.01 0.02 0.02 0.02 0.02 0.02 0.02 0.02 0.02 0.02 0.02 0.02 0.02 0.02 0.02 0.02 0.02 0.02 0.02 0.02 0.03 0.02
MSLP
1009.73 1010.02 1010.36 1010.67 1010.89 1010.96 1010.89 1010.69 1010.42 1010.14 1009.92 1009.78 1009.70 1009.68 1009.67 1009.61 1009.50 1009.33 1009.14 1008.98 1008.90 1008.94 1009.12 1009.42 1009.79 1010.18 1010.53 1010.80 1010.98 1011.09 1011.17 1011.29 1011.49 1011.78 1012.16 1012.58 1013.02 1013.40 1013.70 1013.91 1014.04 1014.13 1014.23 1014.38 1014.59 1014.87 1015.17 1015.48 1015.72
1009.67 1010.02 1010.40 1010.73 1010.93 1010.97 1010.84 1010.57 1010.23 1009.89 1009.60 1009.40 1009.29 1009.24 1009.22 1009.18 1009.09 1008.96 1008.82 1008.71 1008.68 1008.77 1009.00 1009.35 1009.78 1010.23 1010.63 1010.96 1011.19 1011.35 1011.47 1011.59 1011.77 1012.02 1012.33 1012.68 1013.04 1013.35 1013.60 1013.78 1013.90 1014.02 1014.16 1014.36 1014.64 1014.96 1015.31 1015.62 1015.86
1009.76 1010.14 1010.52 1010.82 1010.98 1010.96 1010.78 1010.46 1010.08 1009.69 1009.37 1009.13 1008.99 1008.92 1008.87 1008.82 1008.73 1008.61 1008.49 1008.41 1008.41 1008.55 1008.82 1009.22 1009.71 1010.22 1010.69 1011.08 1011.38 1011.59 1011.74 1011.88 1012.04 1012.25 1012.51 1012.80 1013.09 1013.34 1013.55 1013.71 1013.85 1013.99 1014.18 1014.44 1014.76 1015.13 1015.50 1015.81 1016.02
1010.00 1010.37 1010.71 1010.95 1011.04 1010.96 1010.72 1010.38 1009.97 1009.58 1009.26 1009.01 1008.85 1008.76 1008.68 1008.60 1008.49 1008.35 1008.23 1008.16 1008.18 1008.35 1008.67 1009.11 1009.65 1010.21 1010.73 1011.18 1011.52 1011.77 1011.95 1012.10 1012.26 1012.45 1012.68 1012.93 1013.17 1013.40 1013.58 1013.74 1013.89 1014.06 1014.29 1014.58 1014.93 1015.32 1015.69 1015.98 1016.16
1010.32 1010.65 1010.92 1011.07 1011.08 1010.94 1010.67 1010.31 1009.93 1009.56 1009.26 1009.04 1008.88 1008.76 1008.66 1008.54 1008.40 1008.24 1008.10 1008.03 1008.08 1008.27 1008.61 1009.09 1009.66 1010.24 1010.79 1011.25 1011.61 1011.88 1012.07 1012.22 1012.38 1012.57 1012.78 1013.02 1013.26 1013.48 1013.67 1013.83 1013.99 1014.18 1014.42 1014.72 1015.07 1015.45 1015.79 1016.05 1016.19
1010.62 1010.89 1011.06 1011.12 1011.05 1010.86 1010.58 1010.25 1009.91 1009.61 1009.37 1009.19 1009.05 1008.94 1008.82 1008.67 1008.50 1008.32 1008.17 1008.11 1008.17 1008.37 1008.73 1009.22 1009.77 1010.34 1010.87 1011.31 1011.65 1011.89 1012.07 1012.22 1012.38 1012.57 1012.80 1013.05 1013.30 1013.54 1013.74 1013.92 1014.08 1014.26 1014.48 1014.76 1015.08 1015.41 1015.72 1015.94 1016.04
1010.82 1011.00 1011.09 1011.06 1010.94 1010.73 1010.46 1010.19 1009.93 1009.72 1009.56 1009.45 1009.36 1009.27 1009.15 1008.99 1008.81 1008.62 1008.47 1008.41 1008.48 1008.69 1009.04 1009.49 1010.01 1010.52 1010.98 1011.35 1011.63 1011.82 1011.96 1012.09 1012.24 1012.44 1012.69 1012.97 1013.25 1013.51 1013.73 1013.90 1014.05 1014.20 1014.38 1014.60 1014.86 1015.14 1015.40 1015.59 1015.68
1010.88 1010.98 1010.99 1010.91 1010.76 1010.56 1010.35 1010.16 1010.01 1009.91 1009.85 1009.83 1009.80 1009.74 1009.65 1009.50 1009.32 1009.13 1008.99 1008.94 1009.00 1009.19 1009.50 1009.89 1010.33 1010.74 1011.10 1011.37 1011.55 1011.67 1011.75 1011.85 1012.00 1012.21 1012.47 1012.77 1013.07 1013.34 1013.57 1013.73 1013.85 1013.96 1014.08 1014.24 1014.43 1014.65 1014.87 1015.04 1015.14
1010.82 1010.87 1010.84 1010.74 1010.60 1010.45 1010.33 1010.24 1010.21 1010.23 1010.28 1010.34 1010.37 1010.36 1010.29 1010.16 1009.99 1009.82 1009.68 1009.62 1009.66 1009.81 1010.05 1010.35 1010.67 1010.96 1011.19 1011.35 1011.43 1011.46 1011.49 1011.56 1011.69 1011.89 1012.16 1012.47 1012.78 1013.05 1013.26 1013.40 1013.49 1013.55 1013.61 1013.70 1013.84 1014.01 1014.20 1014.37 1014.50
1010.73 1010.76 1010.73 1010.66 1010.58 1010.51 1010.49 1010.53 1010.61 1010.73 1010.87 1011.00 1011.08 1011.10 1011.05 1010.94 1010.78 1010.61 1010.47 1010.38 1010.38 1010.45 1010.60 1010.78 1010.97 1011.13 1011.23 1011.27 1011.26 1011.23 1011.21 1011.25 1011.36 1011.56 1011.82 1012.11 1012.41 1012.66 1012.84 1012.96 1013.01 1013.03 1013.05 1013.10 1013.20 1013.35 1013.53 1013.72 1013.89
1010.69 1010.74 1010.76 1010.77 1010.78 1010.83 1010.93 1011.08 1011.26 1011.46 1011.66 1011.81 1011.91 1011.94 1011.90 1011.78 1011.62 1011.45 1011.28 1011.14 1011.06 1011.04 1011.06 1011.11 1011.16 1011.18 1011.17 1011.13 1011.06 1010.99 1010.95 1010.98 1011.08 1011.26 1011.50 1011.76 1012.02 1012.24 1012.40 1012.49 1012.52 1012.52 1012.53 1012.58 1012.67 1012.82 1013.01 1013.21 1013.41
1010.76 1010.89 1011.00 1011.12 1011.26 1011.44 1011.66 1011.90 1012.16 1012.40 1012.60 1012.75 1012.83 1012.84 1012.77 1012.63 1012.45 1012.24 1012.02 1011.82 1011.64 1011.50 1011.38 1011.29 1011.21 1011.12 1011.02 1010.93 1010.84 1010.77 1010.75 1010.78 1010.89 1011.05 1011.26 1011.48 1011.70 1011.87 1012.00 1012.07 1012.11 1012.13 1012.16 1012.23 1012.34 1012.51 1012.71 1012.93 1013.13
1010.96 1011.18 1011.42 1011.68 1011.97 1012.29 1012.61 1012.93 1013.22 1013.46 1013.64 1013.73 1013.76 1013.71 1013.59 1013.41 1013.19 1012.93 1012.65 1012.36 1012.07 1011.80 1011.55 1011.32 1011.11 1010.94 1010.79 1010.68 1010.61 1010.59 1010.61 1010.68 1010.80 1010.95 1011.13 1011.31 1011.47 1011.60 1011.71 1011.78 1011.84 1011.91 1011.99 1012.11 1012.27 1012.46 1012.66 1012.87 1013.04
1011.24 1011.57 1011.94 1012.35 1012.79 1013.23 1013.65 1014.03 1014.32 1014.53 1014.64 1014.65 1014.59 1014.46 1014.28 1014.04 1013.77 1013.46 1013.12 1012.75 1012.36 1011.96 1011.58 1011.22 1010.93 1010.69 1010.52 1010.43 1010.42 1010.46 1010.55 1010.68 1010.82 1010.97 1011.11 1011.24 1011.36 1011.45 1011.54 1011.63 1011.73 1011.86 1012.01 1012.19 1012.39 1012.60 1012.79 1012.95 1013.06
1011.49 1011.92 1012.42 1012.97 1013.55 1014.11 1014.61 1015.02 1015.30 1015.46 1015.48 1015.40 1015.25 1015.03 1014.78 1014.50 1014.19 1013.84 1013.45 1013.01 1012.53 1012.04 1011.55 1011.10 1010.72 1010.45 1010.28 1010.23 1010.28 1010.40 1010.57 1010.75 1010.93 1011.07 1011.19 1011.27 1011.34 1011.40 1011.48 1011.59 1011.73 1011.92 1012.14 1012.37 1012.61 1012.81 1012.97 1013.06 1013.07
1011.64 1012.15 1012.75 1013.42 1014.12 1014.78 1015.35 1015.79 1016.05 1016.15 1016.10 1015.93 1015.68 1015.40 1015.09 1014.78 1014.45 1014.08 1013.67 1013.19 1012.66 1012.10 1011.53 1011.02 1010.59 1010.29 1010.13 1010.12 1010.23 1010.42 1010.66 1010.89 1011.09 1011.22 1011.31 1011.34 1011.36 1011.39 1011.46 1011.58 1011.76 1012.00 1012.26 1012.53 1012.77 1012.95 1013.05 1013.05 1012.95
1011.63 1012.18 1012.86 1013.63 1014.43 1015.18 1015.82 1016.28 1016.54 1016.60 1016.48 1016.24 1015.92 1015.58 1015.24 1014.91 1014.58 1014.23 1013.83 1013.35 1012.81 1012.22 1011.61 1011.05 1010.59 1010.27 1010.12 1010.13 1010.28 1010.52 1010.80 1011.06 1011.26 1011.38 1011.43 1011.42 1011.39 1011.38 1011.43 1011.55 1011.75 1012.00 1012.29 1012.56 1012.78 1012.92 1012.94 1012.84 1012.63
1011.48 1012.04 1012.77 1013.62 1014.50 1015.34 1016.05 1016.56 1016.84 1016.87 1016.72 1016.42 1016.04 1015.66 1015.29 1014.96 1014.65 1014.33 1013.97 1013.53 1013.00 1012.42 1011.81 1011.23 1010.75 1010.42 1010.26 1010.27 1010.43 1010.69 1010.98 1011.24 1011.42 1011.52 1011.52 1011.46 1011.39 1011.34 1011.35 1011.45 1011.64 1011.89 1012.16 1012.41 1012.59 1012.66 1012.61 1012.42 1012.12
1011.25 1011.81 1012.57 1013.48 1014.46 1015.39 1016.18 1016.76 1017.07 1017.11 1016.93 1016.59 1016.17 1015.74 1015.35 1015.01 1014.72 1014.43 1014.12 1013.73 1013.25 1012.70 1012.11 1011.54 1011.06 1010.71 1010.53 1010.52 1010.66 1010.89 1011.16 1011.39 1011.55 1011.60 1011.56 1011.46 1011.34 1011.24 1011.22 1011.28 1011.43 1011.65 1011.88 1012.08 1012.21 1012.22 1012.11 1011.86 1011.51
1011.03 1011.59 1012.39 1013.38 1014.44 1015.48 1016.38 1017.04 1017.41 1017.48 1017.29 1016.91 1016.44 1015.95 1015.51 1015.14 1014.83 1014.57 1014.28 1013.94 1013.53 1013.03 1012.48 1011.94 1011.46 1011.09 1010.88 1010.83 1010.92 1011.10 1011.32 1011.50 1011.61 1011.62 1011.54 1011.40 1011.24 1011.10 1011.04 1011.06 1011.17 1011.33 1011.51 1011.66 1011.73 1011.69 1011.53 1011.26 1010.90
1010.94 1011.50 1012.36 1013.42 1014.60 1015.77 1016.79 1017.56 1018.00 1018.10 1017.91 1017.49 1016.94 1016.36 1015.83 1015.38 1015.02 1014.73 1014.46 1014.15 1013.78 1013.34 1012.84 1012.33 1011.86 1011.48 1011.23 1011.13 1011.15 1011.27 1011.41 1011.54 1011.60 1011.58 1011.47 1011.30 1011.11 1010.95 1010.85 1010.83 1010.89 1011.00 1011.13 1011.22 1011.25 1011.18 1011.01 1010.74 1010.41
1011.01 1011.61 1012.53 1013.70 1015.01 1016.32 1017.47 1018.36 1018.89 1019.03 1018.82 1018.34 1017.70 1016.99 1016.32 1015.74 1015.28 1014.92 1014.61 1014.31 1013.97 1013.57 1013.12 1012.64 1012.19 1011.80 1011.52 1011.35 1011.31 1011.35 1011.42 1011.49 1011.51 1011.46 1011.34 1011.17 1010.98 1010.81 1010.69 1010.65 1010.67 1010.74 1010.82 1010.87 1010.87 1010.79 1010.63 1010.41 1010.13
1011.26 1011.91 1012.92 1014.20 1015.64 1017.09 1018.39 1019.40 1020.02 1020.19 1019.97 1019.41 1018.65 1017.79 1016.95 1016.20 1015.59 1015.11 1014.73 1014.40 1014.06 1013.69 1013.28 1012.83 1012.39 1011.99 1011.68 1011.46 1011.35 1011.31 1011.32 1011.34 1011.34 1011.28 1011.16 1011.01 1010.85 1010.69 1010.59 1010.53 1010.54 1010.58 1010.62 1010.65 1010.64 1010.57 1010.44 1010.26 1010.05
1011.63 1012.35 1013.44 1014.83 1016.40 1017.99 1019.42 1020.54 1021.23 1021.44 1021.20 1020.57 1019.68 1018.66 1017.63 1016.70 1015.92 1015.30 1014.81 1014.42 1014.06 1013.70 1013.31 1012.89 1012.46 1012.06 1011.71 1011.44 1011.26 1011.16 1011.12 1011.10 1011.08 1011.03 1010.95 1010.84 1010.72 1010.61 1010.53 1010.50 1010.50 1010.53 1010.56 1010.58 1010.57 1010.51 1010.41 1010.28 1010.13
1012.09 1012.85 1014.01 1015.49 1017.16 1018.85 1020.38 1021.59 1022.36 1022.59 1022.33 1021.64 1020.64 1019.48 1018.29 1017.18 1016.23 1015.47 1014.88 1014.42 1014.03 1013.66 1013.27 1012.86 1012.43 1012.01 1011.62 1011.31 1011.07 1010.91 1010.82 1010.78 1010.75 1010.73 1010.70 1010.65 1010.60 1010.56 1010.53 1010.53 1010.55 1010.58 1010.61 1010.62 1010.61 1010.56 1010.48 1010.38 1010.27
1012.57 1013.36 1014.55 1016.07 1017.79 1019.54 1021.14 1022.40 1023.21 1023.47 1023.20 1022.48 1021.41 1020.15 1018.85 1017.61 1016.54 1015.66 1014.98 1014.45 1014.02 1013.62 1013.23 1012.81 1012.36 1011.91 1011.48 1011.10 1010.81 1010.59 1010.46 1010.40 1010.39 1010.40 1010.43 1010.46 1010.49 1010.52 1010.56 1010.61 1010.66 1010.70 1010.73 1010.73 1010.71 1010.66 1010.58 1010.48 1010.38
1013.06 1013.84 1015.02 1016.53 1018.24 1019.98 1021.58 1022.86 1023.68 1023.96 1023.70 1022.98 1021.90 1020.61 1019.26 1017.97 1016.83 1015.90 1015.15 1014.57 1014.10 1013.68 1013.25 1012.80 1012.32 1011.82 1011.33 1010.89 1010.53 1010.26 1010.09 1010.02 1010.02 1010.08 1010.17 1010.28 1010.40 1010.51 1010.62 1010.72 1010.80 1010.85 1010.87 1010.86 1010.82 1010.74 1010.64 1010.52 1010.39
1013.60 1014.34 1015.45 1016.89 1018.52 1020.19 1021.73 1022.96 1023.76 1024.04 1023.82 1023.13 1022.10 1020.85 1019.53 1018.26 1017.14 1016.19 1015.44 1014.83 1014.33 1013.87 1013.41 1012.91 1012.37 1011.80 1011.24 1010.73 1010.29 1009.97 1009.76 1009.67 1009.69 1009.79 1009.95 1010.14 1010.34 1010.53 1010.71 1010.85 1010.95 1011.01 1011.02 1010.99 1010.90 1010.78 1010.64 1010.47 1010.30
1014.24 1014.90 1015.91 1017.22 1018.71 1020.25 1021.65 1022.79 1023.53 1023.80 1023.60 1022.98 1022.05 1020.91 1019.69 1018.52 1017.47 1016.58 1015.85 1015.25 1014.73 1014.23 1013.71 1013.15 1012.53 1011.88 1011.23 1010.64 1010.13 1009.74 1009.50 1009.40 1009.43 1009.57 1009.78 1010.04 1010.32 1010.58 1010.81 1010.99 1011.12 1011.17 1011.16 1011.08 1010.95 1010.77 1010.56 1010.34 1010.10
1015.02 1015.61 1016.50 1017.64 1018.95 1020.28 1021.51 1022.50 1023.14 1023.38 1023.20 1022.66 1021.84 1020.85 1019.80 1018.77 1017.84 1017.05 1016.38 1015.80 1015.26 1014.72 1014.14 1013.50 1012.79 1012.05 1011.32 1010.64 1010.06 1009.62 1009.34 1009.22 1009.26 1009.43 1009.69 1010.00 1010.34 1010.66 1010.93 1011.14 1011.27 1011.31 1011.27 1011.14 1010.96 1010.72 1010.44 1010.15 1009.85
Thickness
5796 5802 5806 5803 5797 5794 5788 5794 5799 5799 5802 5809 5810 5807 5801 5796 5791 5782 5800 5808 5807 5805 5798 5790 5786 5783 5781 5779 5777 5776 5774 5772 5770 5768 5766 5764 5763 5761 5760 5758 5756 5754 5753 5752 5751 5750 5748 5747 5746
5801 5803 5801 5799 5791 5781 5783 5794 5794 5797 5803 5808 5807 5804 5799 5795 5798 5797 5800 5802 5803 5800 5795 5790 5783 5780 5778 5776 5774 5772 5770 5769 5767 5764 5763 5760 5759 5758 5756 5755 5753 5751 5750 5748 5747 5747 5745 5744 5743
5800 5801 5797 5796 5787 5782 5783 5793 5794 5800 5805 5804 5800 5801 5796 5790 5794 5795 5798 5799 5798 5795 5791 5785 5780 5777 5775 5772 5770 5768 5766 5765 5763 5761 5759 5757 5756 5754 5753 5751 5750 5748 5746 5745 5744 5743 5742 5741 5740
5798 5795 5794 5788 5781 5789 5790 5794 5797 5796 5799 5802 5799 5792 5792 5793 5794 5796 5797 5797 5794 5791 5788 5782 5776 5774 5771 5769 5766 5764 5763 5761 5759 5757 5756 5754 5752 5751 5749 5748 5746 5745 5744 5743 5742 5740 5739 5738 5737
5797 5791 5783 5780 5782 5790 5795 5796 5796 5792 5792 5795 5795 5787 5784 5791 5796 5795 5793 5793 5790 5789 5785 5779 5773 5770 5767 5765 5763 5761 5759 5757 5755 5754 5752 5750 5748 5747 5746 5744 5743 5742 5741 5740 5739 5737 5736 5735 5734
5788 5788 5776 5773 5778 5787 5793 5796 5793 5791 5791 5792 5790 5785 5783 5790 5790 5790 5791 5790 5788 5785 5782 5775 5768 5766 5763 5761 5759 5757 5756 5753 5751 5750 5748 5747 5745 5744 5742 5741 5740 5739 5738 5737 5736 5735 5733 5733 5732
5783 5781 5775 5776 5775 5779 5786 5793 5789 5788 5785 5788 5792 5782 5782 5785 5787 5789 5788 5787 5784 5781 5778 5773 5768 5764 5760 5758 5756 5754 5752 5750 5748 5746 5745 5743 5742 5740 5739 5738 5737 5736 5735 5734 5733 5732 5731 5730 5729
5788 5782 5774 5776 5772 5774 5786 5789 5789 5786 5784 5792 5792 5780 5777 5782 5786 5785 5783 5782 5779 5776 5773 5771 5767 5764 5760 5757 5753 5751 5748 5746 5744 5742 5741 5739 5738 5737 5736 5735 5734 5733 5732 5731 5730 5729 5728 5727 5726
5784 5773 5770 5773 5772 5776 5784 5782 5785 5790 5786 5786 5788 5787 5786 5785 5783 5779 5776 5774 5772 5770 5768 5766 5764 5761 5759 5757 5752 5749 5746 5743 5741 5740 5738 5737 5738 5737 5734 5733 5731 5729 5729 5727 5726 5726 5725 5724 5724
5776 5767 5771 5778 5780 5779 5781 5780 5781 5781 5777 5777 5778 5781 5782 5780 5776 5772 5769 5767 5765 5763 5763 5762 5759 5757 5755 5753 5750 5748 5746 5743 5741 5740 5738 5736 5735 5733 5732 5729 5727 5726 5725 5724 5723 5723 5722 5721 5724
5774 5768 5774 5777 5780 5779 5777 5778 5782 5775 5771 5776 5775 5774 5775 5772 5771 5768 5766 5764 5761 5759 5757 5757 5754 5751 5750 5748 5747 5745 5743 5741 5739 5736 5735 5732 5731 5730 5729 5728 5726 5724 5723 5723 5722 5722 5721 5721 5721
5769 5771 5774 5775 5777 5775 5775 5776 5775 5774 5774 5781 5781 5777 5772 5766 5765 5763 5761 5759 5757 5755 5752 5751 5749 5747 5744 5743 5742 5741 5740 5737 5736 5733 5731 5730 5729 5727 5726 5724 5724 5723 5722 5720 5720 5719 5718 5717 5716
5767 5769 5772 5775 5775 5774 5773 5771 5769 5770 5776 5779 5777 5771 5766 5763 5761 5760 5758 5755 5752 5749 5747 5746 5743 5741 5738 5736 5736 5736 5735 5734 5731 5728 5727 5725 5725 5724 5723 5721 5719 5719 5717 5716 5715 5714 5713 5712 5713
5770 5770 5771 5773 5773 5771 5766 5767 5765 5766 5771 5770 5767 5763 5761 5759 5757 5754 5751 5747 5745 5743 5742 5740 5738 5736 5733 5731 5730 5730 5730 5727 5727 5724 5722 5720 5720 5719 5717 5716 5714 5714 5713 5711 5710 5709 5707 5707 5708
5771 5764 5767 5770 5770 5770 5767 5759 5761 5765 5766 5761 5760 5759 5757 5755 5754 5750 5748 5744 5742 5740 5739 5736 5734 5731 5728 5727 5726 5726 5725 5723 5721 5719 5717 5715 5714 5713 5712 5712 5710 5709 5708 5705 5704 5703 5702 5702 5702
5768 5763 5759 5766 5767 5767 5760 5750 5759 5764 5761 5756 5755 5754 5752 5750 5749 5748 5746 5742 5740 5737 5734 5732 5731 5727 5724 5722 5719 5720 5719 5717 5716 5714 5713 5711 5709 5708 5707 5707 5706 5703 5702 5701 5699 5698 5697 5696 5696
5762 5757 5756 5760 5767 5765 5758 5751 5756 5760 5757 5752 5751 5750 5748 5745 5744 5744 5742 5740 5737 5734 5731 5727 5725 5722 5719 5717 5714 5714 5712 5711 5710 5709 5708 5706 5704 5703 5702 5702 5700 5697 5696 5695 5694 5693 5690 5689 5689
5754 5756 5754 5754 5762 5759 5753 5751 5753 5754 5752 5749 5747 5746 5743 5740 5740 5741 5739 5737 5733 5730 5727 5724 5720 5717 5714 5712 5709 5709 5708 5707 5706 5705 5703 5700 5699 5699 5698 5697 5694 5692 5690 5688 5686 5683 5682 5682 5682
5760 5755 5751 5755 5761 5754 5750 5749 5750 5749 5748 5745 5743 5741 5739 5738 5739 5737 5735 5733 5729 5725 5722 5719 5715 5712 5709 5707 5705 5704 5704 5703 5702 5701 5697 5695 5695 5694 5692 5691 5688 5686 5685 5682 5681 5678 5677 5677 5677
5758 5752 5752 5755 5757 5751 5747 5746 5748 5748 5743 5742 5739 5737 5736 5736 5735 5732 5730 5727 5723 5720 5718 5715 5712 5709 5706 5704 5702 5701 5700 5699 5698 5696 5693 5691 5690 5689 5689 5685 5683 5681 5678 5677 5674 5672 5672 5673 5672
5755 5753 5752 5750 5752 5753 5745 5742 5744 5745 5742 5739 5738 5737 5736 5733 5731 5728 5725 5723 5720 5717 5714 5712 5708 5705 5702 5700 5700 5698 5695 5695 5694 5691 5689 5687 5685 5683 5682 5680 5678 5676 5675 5673 5670 5669 5667 5666 5666
5752 5762 5756 5752 5747 5746 5746 5733 5740 5740 5736 5735 5733 5733 5733 5733 5730 5726 5722 5719 5716 5714 5712 5708 5705 5701 5698 5696 5695 5693 5691 5689 5688 5687 5685 5683 5681 5679 5677 5675 5673 5671 5671 5668 5667 5666 5663 5660 5660
5758 5764 5759 5755 5750 5745 5746 5736 5738 5739 5732 5733 5732 5731 5730 5730 5728 5724 5721 5718 5716 5713 5710 5705 5701 5697 5695 5692 5690 5688 5687 5686 5686 5683 5680 5678 5677 5675 5673 5671 5669 5667 5666 5664 5661 5659 5658 5657 5656
5764 5760 5758 5756 5753 5733 5740 5733 5731 5736 5733 5733 5733 5730 5728 5727 5725 5722 5720 5717 5714 5712 5708 5703 5698 5694 5692 5689 5687 5684 5682 5680 5679 5677 5675 5675 5674 5672 5669 5667 5665 5663 5661 5659 5657 5655 5653 5651 5649
5760 5750 5739 5737 5735 5734 5742 5732 5731 5737 5738 5734 5730 5728 5727 5725 5722 5718 5715 5713 5711 5708 5705 5701 5696 5692 5689 5687 5684 5681 5679 5676 5674 5673 5671 5670 5669 5668 5665 5664 5661 5659 5656 5655 5653 5651 5649 5647 5643
5756 5751 5734 5724 5728 5737 5737 5729 5735 5739 5737 5735 5732 5729 5725 5721 5719 5716 5713 5710 5707 5704 5700 5697 5693 5689 5687 5684 5681 5678 5676 5676 5674 5670 5668 5666 5665 5663 5660 5658 5656 5654 5652 5651 5649 5648 5645 5643 5639
5753 5753 5759 5745 5740 5730 5735 5735 5735 5736 5732 5730 5727 5724 5722 5719 5716 5713 5710 5707 5704 5700 5695 5692 5689 5686 5683 5681 5677 5675 5673 5671 5669 5666 5664 5663 5661 5659 5655 5653 5651 5650 5648 5646 5644 5642 5640 5637 5636
5761 5757 5748 5739 5721 5719 5729 5729 5730 5726 5726 5726 5723 5721 5720 5717 5714 5711 5708 5703 5700 5696 5692 5688 5685 5682 5680 5678 5674 5672 5670 5667 5665 5663 5661 5659 5657 5654 5651 5649 5647 5645 5643 5641 5639 5637 5634 5632 5630
5748 5746 5743 5743 5737 5721 5715 5724 5737 5731 5728 5725 5723 5721 5718 5714 5711 5707 5704 5700 5696 5693 5690 5685 5682 5680 5677 5675 5671 5668 5666 5664 5662 5660 5658 5655 5653 5650 5648 5647 5644 5642 5639 5636 5633 5632 5629 5627 5626
5752 5747 5741 5726 5724 5728 5721 5721 5737 5734 5732 5727 5723 5720 5717 5712 5709 5705 5700 5696 5692 5689 5686 5683 5680 5677 5674 5671 5668 5665 5663 5661 5658 5657 5654 5651 5648 5646 5645 5643 5640 5637 5635 5632 5629 5627 5625 5623 5621